W0VI Weather Reports


time (UTC)temp
C
wind
direction
speed
KPH
gust
KPH
rain 1hr
cm
rain 24hr
cm
rain mn
cm
humidity
%
barometer
mb
20260504090105 14 205 8.0 11.3 0.00 0.00 0.00 44 996.6
20260504081535 13 198 8.0 11.3 0.00 0.00 0.00 44 997.7
20260504081031 13 223 12.9 17.7 0.00 0.00 0.00 43 997.5
20260504080528 13 220 6.4 8.0 0.00 0.00 0.00 43 997.5
20260504050346 13 201 4.8 4.8 0.00 0.00 0.00 50 1001.2
20260504045843 12 209 3.2 3.2 0.00 0.00 0.00 53 1001.4
20260504045338 12 222 1.6 3.2 0.00 0.00 0.00 51 1001.4
20260504044835 12 209 3.2 8.0 0.00 0.00 0.00 51 1001.7
20260504044332 12 201 3.2 4.8 0.00 0.00 0.00 51 1001.7
20260504043830 12 249 1.6 3.2 0.00 0.00 0.00 52 1001.8
20260504043327 12 266 1.6 3.2 0.00 0.00 0.00 51 1002.0
20260504042824 12 244 3.2 3.2 0.00 0.00 0.00 50 1002.0
20260504042320 12 232 1.6 1.6 0.00 0.00 0.00 51 1002.0
20260504041817 12 228 1.6 1.6 0.00 0.00 0.00 52 1002.5
20260504041313 12 258 1.6 1.6 0.00 0.00 0.00 51 1002.2
20260504040809 12 259 0.0 1.6 0.00 0.00 0.00 52 1002.5
20260504040307 12 219 1.6 1.6 0.00 0.00 0.00 52 1002.5
20260504035802 12 272 0.0 0.0 0.00 0.00 0.00 53 1002.6
20260504035300 12 280 0.0 0.0 0.00 0.00 0.00 54 1002.6
20260504034757 12 308 0.0 0.0 0.00 0.00 0.00 57 1002.9
20260504034255 12 313 0.0 1.6 0.00 0.00 0.00 57 1003.0
20260504033751 12 307 0.0 0.0 0.00 0.00 0.00 55 1002.9
20260504033249 12 304 0.0 0.0 0.00 0.00 0.00 55 1003.2
20260504032746 12 303 0.0 1.6 0.00 0.00 0.00 56 1003.2
20260504032243 13 279 1.6 1.6 0.00 0.00 0.00 53 1003.3
20260504031739 13 267 1.6 1.6 0.00 0.00 0.00 53 1003.5
20260504031238 13 260 1.6 1.6 0.00 0.00 0.00 52 1003.6
20260504030732 13 266 0.0 1.6 0.00 0.00 0.00 49 1003.4
20260504030230 12 266 0.0 0.0 0.00 0.00 0.00 49 1003.6
20260504025726 13 266 0.0 0.0 0.00 0.00 0.00 48 1003.5
20260504025223 13 265 0.0 0.0 0.00 0.00 0.00 45 1003.7
20260504024720 14 265 0.0 0.0 0.00 0.00 0.00 44 1003.6
20260504024217 14 267 0.0 0.0 0.00 0.00 0.00 44 1003.7
20260504023714 15 267 0.0 0.0 0.00 0.00 0.00 44 1003.8
20260504023209 15 267 0.0 0.0 0.00 0.00 0.00 41 1003.8
20260504022706 15 264 0.0 1.6 0.00 0.00 0.00 39 1003.7
20260504022202 15 297 0.0 0.0 0.00 0.00 0.00 38 1003.7
20260504021700 16 300 0.0 0.0 0.00 0.00 0.00 39 1003.6
20260504021156 16 258 1.6 1.6 0.00 0.00 0.00 39 1003.8
20260504020653 16 263 0.0 1.6 0.00 0.00 0.00 38 1003.9
20260504020149 16 292 1.6 1.6 0.00 0.00 0.00 37 1003.8
20260504015646 16 243 1.6 3.2 0.00 0.00 0.00 36 1003.9
20260504015142 16 285 1.6 1.6 0.00 0.00 0.00 36 1003.9
20260504014638 16 272 1.6 1.6 0.00 0.00 0.00 36 1003.8
20260504014136 17 273 1.6 1.6 0.00 0.00 0.00 35 1003.8
20260504013633 17 249 1.6 1.6 0.00 0.00 0.00 34 1003.9
20260504013130 17 260 1.6 1.6 0.00 0.00 0.00 33 1003.6
20260504012627 17 266 3.2 3.2 0.00 0.00 0.00 33 1004.0
20260504012125 17 293 0.0 1.6 0.00 0.00 0.00 35 1003.9
20260504011622 17 289 1.6 1.6 0.00 0.00 0.00 34 1004.0
20260504011118 18 305 0.0 1.6 0.00 0.00 0.00 33 1004.1
20260504010614 18 273 0.0 0.0 0.00 0.00 0.00 32 1003.8
20260504010110 18 287 1.6 1.6 0.00 0.00 0.00 31 1004.1
20260504005607 19 258 6.4 8.0 0.00 0.00 0.00 29 1004.1
20260504005104 20 283 8.0 8.0 0.00 0.00 0.00 27 1004.1
20260504004602 20 285 4.8 8.0 0.00 0.00 0.00 27 1004.2
20260504004059 20 275 6.4 8.0 0.00 0.00 0.00 27 1004.1
20260504003555 20 310 3.2 3.2 0.00 0.00 0.00 27 1004.3
20260504003052 20 221 4.8 9.7 0.00 0.00 0.00 27 1004.1
20260504002549 20 252 4.8 8.0 0.00 0.00 0.00 26 1004.2
20260504002046 20 275 4.8 8.0 0.00 0.00 0.00 25 1004.3
20260504001544 20 308 9.7 11.3 0.00 0.00 0.00 24 1004.4
20260504001039 20 300 8.0 9.7 0.00 0.00 0.00 24 1004.4
20260504000537 20 298 11.3 16.1 0.00 0.00 0.00 24 1004.4
20260504000035 20 276 8.0 11.3 0.00 0.00 0.00 25 1004.4
20260503235533 20 339 8.0 11.3 0.00 0.00 0.00 26 1004.1
20260503235029 20 328 11.3 14.5 0.00 0.00 0.00 26 1004.5
20260503234527 20 254 4.8 11.3 0.00 0.00 0.00 26 1004.4
20260503234025 20 292 6.4 8.0 0.00 0.00 0.00 26 1004.4
20260503233521 21 311 11.3 12.9 0.00 0.00 0.00 26 1004.4
20260503233017 21 293 9.7 11.3 0.00 0.00 0.00 25 1004.3
20260503232514 21 239 1.6 3.2 0.00 0.00 0.00 26 1004.6
20260503232012 21 263 9.7 11.3 0.00 0.00 0.00 26 1004.3
20260503231510 21 273 4.8 9.7 0.00 0.00 0.00 25 1004.5
20260503231006 21 253 11.3 12.9 0.00 0.00 0.00 25 1004.5
20260503230503 21 296 11.3 14.5 0.00 0.00 0.00 25 1004.4
20260503230000 21 55 4.8 4.8 0.00 0.00 0.00 24 1004.6
20260503225456 21 276 4.8 4.8 0.00 0.00 0.00 26 1004.6
20260503224952 21 290 8.0 9.7 0.00 0.00 0.00 25 1004.7
20260503224449 20 283 4.8 4.8 0.00 0.00 0.00 26 1004.8
20260503223947 21 280 4.8 8.0 0.00 0.00 0.00 26 1004.9
20260503223445 21 251 6.4 11.3 0.00 0.00 0.00 26 1004.7
20260503222940 21 273 6.4 9.7 0.00 0.00 0.00 26 1005.0
20260503222439 21 260 11.3 14.5 0.00 0.00 0.00 25 1004.8
20260503221937 21 294 9.7 12.9 0.00 0.00 0.00 24 1005.0
20260503221435 21 313 9.7 11.3 0.00 0.00 0.00 24 1005.0
20260503220931 21 250 16.1 22.5 0.00 0.00 0.00 24 1005.0
20260503220427 21 289 14.5 20.9 0.00 0.00 0.00 24 1005.1
20260503215925 21 262 8.0 9.7 0.00 0.00 0.00 25 1005.0
20260503215422 20 318 11.3 12.9 0.00 0.00 0.00 25 1005.4
20260503214919 21 259 8.0 12.9 0.00 0.00 0.00 25 1005.0
20260503214416 21 281 6.4 9.7 0.00 0.00 0.00 25 1005.4
20260503213914 21 328 8.0 11.3 0.00 0.00 0.00 25 1005.5
20260503213412 21 30 8.0 11.3 0.00 0.00 0.00 24 1005.2
20260503212908 21 331 4.8 9.7 0.00 0.00 0.00 24 1005.5
20260503212406 21 334 4.8 4.8 0.00 0.00 0.00 24 1005.2
20260503211903 21 342 8.0 12.9 0.00 0.00 0.00 24 1005.5
20260503211359 21 302 11.3 12.9 0.00 0.00 0.00 23 1005.5
20260503210854 20 280 9.7 11.3 0.00 0.00 0.00 25 1005.8
20260503210352 21 282 4.8 4.8 0.00 0.00 0.00 25 1005.6
20260503205847 20 285 14.5 17.7 0.00 0.00 0.00 25 1005.7
20260503205344 20 280 8.0 11.3 0.00 0.00 0.00 25 1005.9
20260503204840 21 326 8.0 11.3 0.00 0.00 0.00 25 1006.1
20260503204338 21 342 12.9 17.7 0.00 0.00 0.00 25 1005.8
20260503203835 21 316 14.5 17.7 0.00 0.00 0.00 24 1005.8
20260503203332 21 9 8.0 9.7 0.00 0.00 0.00 24 1006.0
20260503202829 20 279 8.0 12.9 0.00 0.00 0.00 25 1005.9
20260503202327 21 281 12.9 14.5 0.00 0.00 0.00 23 1005.8
20260503201825 20 322 16.1 24.1 0.00 0.00 0.00 23 1006.1
20260503201322 20 319 9.7 12.9 0.00 0.00 0.00 24 1006.1
20260503200820 21 291 6.4 11.3 0.00 0.00 0.00 23 1006.1
20260503200315 20 329 11.3 14.5 0.00 0.00 0.00 23 1006.2
20260503195813 21 325 1.6 3.2 0.00 0.00 0.00 27 1006.1
20260503195309 21 304 4.8 8.0 0.00 0.00 0.00 25 1006.3
20260503194807 20 353 8.0 11.3 0.00 0.00 0.00 24 1006.5
20260503194302 20 295 6.4 9.7 0.00 0.00 0.00 26 1006.3
20260503193758 20 297 3.2 3.2 0.00 0.00 0.00 27 1006.4
20260503193255 20 273 9.7 12.9 0.00 0.00 0.00 26 1006.4
20260503192750 20 344 3.2 4.8 0.00 0.00 0.00 28 1006.5
20260503192245 21 274 17.7 20.9 0.00 0.00 0.00 27 1006.6
20260503191737 20 16 3.2 3.2 0.00 0.00 0.00 33 1006.6
20260503191229 20 11 1.6 3.2 0.00 0.00 0.00 30 1006.9
20260503190725 20 27 6.4 9.7 0.00 0.00 0.00 27 1006.9
20260503190222 20 295 16.1 20.9 0.00 0.00 0.00 27 1006.8
20260503185720 20 62 3.2 4.8 0.00 0.00 0.00 29 1006.6
20260503185215 20 241 17.7 25.7 0.00 0.00 0.00 29 1006.7
20260503184715 20 8 3.2 3.2 0.00 0.00 0.00 29 1007.0
20260503184211 20 325 11.3 12.9 0.00 0.00 0.00 31 1006.7
20260503183708 20 318 9.7 9.7 0.00 0.00 0.00 30 1006.6
20260503183205 20 6 11.3 16.1 0.00 0.00 0.00 28 1006.9
20260503182704 19 300 12.9 17.7 0.00 0.00 0.00 28 1006.9
20260503182202 20 318 12.9 14.5 0.00 0.00 0.00 28 1006.9
20260503181658 20 265 8.0 11.3 0.00 0.00 0.00 27 1006.9
20260503181155 20 306 4.8 8.0 0.00 0.00 0.00 28 1007.0
20260503180651 20 259 3.2 4.8 0.00 0.00 0.00 27 1006.8
20260503180150 20 4 6.4 8.0 0.00 0.00 0.00 29 1006.8
20260503175647 20 18 6.4 11.3 0.00 0.00 0.00 29 1007.1
20260503175144 19 304 12.9 16.1 0.00 0.00 0.00 29 1007.0
20260503174640 20 318 8.0 12.9 0.00 0.00 0.00 30 1007.2
20260503174137 19 313 8.0 11.3 0.00 0.00 0.00 33 1007.2
20260503173632 19 349 8.0 12.9 0.00 0.00 0.00 34 1006.9
20260503173129 19 321 11.3 14.5 0.00 0.00 0.00 34 1007.0
20260503172626 19 340 6.4 9.7 0.00 0.00 0.00 38 1007.1
20260503172124 19 317 4.8 8.0 0.00 0.00 0.00 36 1007.3
20260503171620 18 322 12.9 17.7 0.00 0.00 0.00 38 1007.1
20260503171117 18 304 12.9 20.9 0.00 0.00 0.00 34 1007.2
20260503170614 18 288 12.9 16.1 0.00 0.00 0.00 36 1007.1
20260503170110 19 305 6.4 9.7 0.00 0.00 0.00 39 1007.2
20260503151000 17 334 6.4 9.7 0.00 0.00 0.00 44 1007.0
20260503150456 17 359 3.2 4.8 0.00 0.00 0.00 47 1006.9
20260503131343 13 319 6.4 11.3 0.00 0.00 0.00 55 1006.1
20260503130842 13 335 8.0 11.3 0.00 0.00 0.00 55 1006.1
20260503130339 12 329 14.5 17.7 0.00 0.00 0.00 55 1006.3
20260503110732 11 284 1.6 1.6 0.00 0.00 0.00 55 1004.7
20260503110229 11 283 3.2 4.8 0.00 0.00 0.00 55 1004.4
20260503100150 12 176 1.6 1.6 0.00 0.00 0.00 52 1004.8